MIDAS 3 DEB, 25793

Orbit data source: Space-Track

MIDAS 3 DEB, 25793 is space debris in LEO originally from a launch on Wed, 12 Jul 1961 UTC launched from the Air Force Western Test Range (AFWTR). Debris objects in space refer to the collection of defunct objects orbiting the Earth. Examples of debris include non-operational satellites, rocket bodies, and fragments generated from explosions, collisions, or faulty payload assembly.

Loading next visibility...
Identifier
25793, 1961-018F
Orbit
LEO
Last TLE update
1 day ago
Origin
Manufacturer
Unknown
Mission
Spacecraft
Bus & Motor
Unknown
Mass
Unknown
Launch date (UTC)
1961-07-12 (64 years ago)
Launch vehicle
Unknown
Launch site
Air Force Western Test Range (AFWTR)
Object type
Payload
Rocket body
Debris
Shape & HBR
Unknown
Radar Cross Section
Medium (>0.1 m² and <1 m²)

Expand to show TLE details & history

TLE from 1 day ago
0 MIDAS 3 DEB
1 25793U 61018F   25188.03709453  .00000006  00000-0  16018-2 0  9991
2 25793  91.1250 204.0292 0130490  92.3278 269.2542  8.93206226371136
Epoch: 2025-07-07T00:53Z
TLE epoch observation values (Epoch: 2025-07-07T00:53:24.967Z)
Latitude
-0.00006°
Longitude
-94.57702°
Altitude
3,439.663 km
Speed
6.371 km/s
True Right ascension
13h 36m 07s
True Declination
0° 00' 00"
Sunlit
Object was in daylight at epoch
Visualization orbit readout
Latitude
-52.01171°
Longitude
-93.08437°
Altitude
3,555.346 km
Speed
6.303 km/s
Apparent Right ascension
11h 35m 13s
Apparent Declination
-53° 09' 01"
Sunlit
Object is in daylight
Visualization observer readout
Local Sidereal Time
20:50:55
Azimuth
230.601° WSW
Elevation
-59.342°
Doppler factor
1
Orbital elements
Apogee altitude
3,559.859 km
Perigee altitude
3,303.838 km
Semi-major axis
9,809.986 km
Eccentricity
0.01305
Inclination
91.125°
RAAN
204.0292°
Arg. of periapsis
92.3278°
True anomaly
Unknown
Mean anomaly
269.2542°
Eccentric anomaly
Unknown
Mean motion
2.23378 °/min
Orbital period
161.16 mins
BSTAR
0.0016018
Loading maneuver chart data...
Loading SW <> Apogee altitude chart data...
Loading historical data...
Loading historical data...
Loading historical data...
Loading historical data...
Loading historical data...
Loading historical data...
Loading historical data...
Other satellites on launch #18 in the year 1961 (1961-07-12 UTC)

MIDAS 3 DEB Visibility forecast

Observer location: undefined°, undefined°

Span
Click to sort rows by Start time (UTC) header in descending order
Start Az.
Max El. time (UTC)
Max El. Az.
Max El.
End time (UTC)
End Az.
12 mins2025-07-08 10:00:09.325Z35.988° NE2025-07-08 10:06:09.325Z57.976° ENE12.188°2025-07-08 10:12:09.325Z79.832° E
32 mins2025-07-08 12:36:09.325Z7.741° NNE2025-07-08 12:52:09.325Z97.377° ESE42.635°2025-07-08 13:08:09.325Z171.065° S
27 mins2025-07-08 15:17:09.325Z350.816° N2025-07-08 15:30:09.325Z295.239° NW30.445°2025-07-08 15:44:09.325Z238.132° WSW
23 mins2025-07-08 22:45:09.325Z104.483° ESE2025-07-08 22:57:09.325Z56.257° ENE24.212°2025-07-08 23:08:09.325Z12.427° NNE
33 mins2025-07-09 01:18:09.325Z175.948° S2025-07-09 01:34:09.325Z280.926° WNW44.861°2025-07-09 01:51:09.325Z356.532° N
20 mins2025-07-09 04:08:09.325Z257.155° W2025-07-09 04:17:09.325Z292.138° WNW18.565°2025-07-09 04:28:09.325Z335.008° NNW
|